Regional Weather Roundup
Issued by NWS

Home | Current Version | Previous Version | Text Only | Print | Product List | Glossary Off
Versions: 1 2 3 4 5 6 7 8 9 10 11 12 13 14 15 16 17 18 19 20 21 22 23 24 25 26 27 28 29 30 31 32 33 34 35 36 37 38 39 40 41 42 43 44 45 46 47 48 49 50

000
ASUS44 KMEG 191910
RWRTN
TENNESSEE HOURLY STATE WEATHER ROUNDUP
NATIONAL WEATHER SERVICE MEMPHIS TN
200 PM CDT FRI SEP 19 2014

TNZ002-004-019-021-049-052-054-088>092-192000-
WEST TENNESSEE

CITY           SKY/WX    TMP DP  RH WIND       PRES   REMARKS
MEMPHIS INTL   MOSUNNY   84  66  54 CALM      30.02F
NWS MEMPHIS      N/A     84 N/A N/A MISG        N/A
JACKSON        MOSUNNY   82  64  54 E3        30.03F
DYERSBURG      SUNNY     81  59  47 NE7       30.03F
UNION CITY     MOSUNNY   79  63  57 CALM      30.02F
PARIS          SUNNY     81  61  50 E5        30.04F
HUNTINGDON     SUNNY     80  60  50 CALM      30.02F
LEXINGTON      SUNNY     82  64  54 SE5       30.02F
SAVANNAH       SUNNY     84  68  58 SW6       30.03F
$$

TNZ008-025-027-028-033-062-065-066-192000-
NORTH MIDDLE TENNESSEE

CITY           SKY/WX    TMP DP  RH WIND       PRES   REMARKS
NASHVILLE      MOSUNNY   83  61  47 VRB6      30.05F
DICKSON        MOSUNNY   81  63  54 VRB5      30.04F
PORTLAND       MOSUNNY   81  61  50 S8        30.05F
CLARKSVILLE    SUNNY     81  59  47 SE5       30.03F
LEBANON        SUNNY     83  60  45 E6        30.04F
SMYRNA         MOSUNNY   86  62  44 E7        30.05F
MURFREESBORO   MOSUNNY   83  60  45 CALM      30.03F
COOKEVILLE     PTSUNNY   82  64  54 S3        30.07F
LIVINGSTON     MOSUNNY   77  59  53 CALM      30.09F
GALLATIN       SUNNY     84  62  47 VRB5      30.06F
CROSSVILLE     MOSUNNY   77  57  50 S3        30.12F
$$

TNZ061-075-076-078-094-096-097-192000-
SOUTH MIDDLE TENNESSEE

CITY           SKY/WX    TMP DP  RH WIND       PRES   REMARKS
LEWISBURG      PTSUNNY   83  65  54 E3        30.04F
FAYETTEVILLE   MOSUNNY   81  61  50 S7        30.05F
TULLAHOMA      MOSUNNY   81  63  54 S3        30.07F
WINCHESTER     SUNNY     82  64  54 SE9       30.06F
MCMINNVILLE    SUNNY     82  66  57 SE5       30.06F
COLUMBIA       SUNNY     86  66  51 SE7       30.02F
SHELBYVILLE    MOSUNNY   86  66  51 SW9       30.05F
$$

TNZ017-018-042-046-047-192000-
NORTHEAST TENNESSEE

CITY           SKY/WX    TMP DP  RH WIND       PRES   REMARKS
TRI CITIES     MOSUNNY   81  54  39 S10       30.11F
ELIZABETHTON   CLOUDY    73  61  64 SE8       30.14S
$$

TNZ012-013-036-069-073-074-192000-
CENTRAL EAST TENNESSEE

CITY           SKY/WX    TMP DP  RH WIND       PRES   REMARKS
KNOXVILLE      MOSUNNY   82  60  47 VRB3      30.06F
OAK RIDGE      MOSUNNY   82  60  47 S7        30.09F
GATLINBURG     CLEAR     82  59  44 CALM      30.07F
MORRISTOWN     CLEAR     82  63  51 CALM      30.10F
$$

TNZ083-085-099-192000-
SOUTHEAST TENNESSEE

CITY           SKY/WX    TMP DP  RH WIND       PRES   REMARKS
CHATTANOOGA    PTSUNNY   83  63  50 VRB5      30.06F
$$

SKY/WX REPORTED AS FAIR MEANS FEW OR NO CLOUDS BELOW
12 THOUSAND FEET.




USA.gov is the U.S. government's official web portal to all federal, state and local government web resources and services.